CAPE
0 0 0 0 0 0 0 0 0 0 0 5 32 0 0 424 873 699 755 687 1047 1490 1541 1487 1548 1758 1727 1731 1921 2146 2357 2431 2393 2304 2260 2365 2450 2484 2455 2401 2245 2090 1603 1306 1335 1369 1330 1297 1243
0 0 0 0 0 0 0 0 0 0 0 412 364 576 783 757 794 985 757 962 1230 1588 1622 1409 1417 1648 1771 1761 1866 2051 2285 2264 2168 2174 2262 2323 2395 2415 2436 2359 2145 1971 1495 1017 1028 1155 1171 1076 1129
0 0 0 0 0 0 0 0 0 0 0 122 14 230 260 831 860 804 927 1064 1339 1531 1692 1492 1459 1606 1727 1778 1882 2007 2029 1995 2008 2073 2233 2252 2284 2370 2198 2133 1958 1836 1465 896 703 625 569 485 454
0 0 0 0 0 0 0 0 0 0 0 159 11 46 137 734 806 871 1096 1131 1272 1509 1669 1294 1493 1650 1787 1882 1930 1931 1889 1817 1880 2034 2187 2277 2310 2232 1990 1880 1875 1792 1468 810 557 316 138 94 45
0 0 0 0 0 0 0 0 0 0 0 109 13 31 37 672 975 1199 1316 1220 1259 1427 1522 1447 1417 1619 1813 2007 1970 1751 1676 1696 1854 1966 2026 2073 2101 1932 1782 1726 1744 1658 1398 806 407 173 124 29 0
0 0 0 0 0 0 0 0 0 0 0 72 204 63 47 446 999 1294 1406 1301 1284 1256 1209 1632 1389 1629 1851 1943 1736 1527 1498 1584 1673 1764 1847 1862 1657 1523 1541 1584 1572 1438 1103 754 440 216 41 2 0
0 0 0 0 0 0 0 0 0 0 0 0 132 172 99 383 1111 1301 1324 1328 1318 1403 1592 1798 1740 1730 1748 1684 1502 1351 1317 1375 1444 1542 1596 1432 1153 1177 1334 1359 1457 1165 775 477 306 87 0 0 0
0 0 0 0 0 0 0 0 0 0 0 13 4 10 43 46 1101 1066 1240 1378 1310 1450 1523 1732 1782 1927 2023 1835 1412 1262 1240 1257 1278 1346 1333 1118 1004 1014 1038 1048 1223 1004 689 411 270 50 0 0 0
0 0 0 0 0 0 0 0 0 0 0 12 84 70 24 541 1093 1100 1059 929 942 930 1050 1206 1752 1829 1761 1838 1615 1296 1276 1271 1246 1251 1205 1079 1310 1227 1119 854 965 965 689 418 251 69 1 0 0
0 0 0 0 0 0 0 0 0 0 0 2 91 43 667 1060 1186 1194 1104 855 684 672 1098 1610 1349 1409 1360 1349 1482 1871 1835 1804 1802 1736 1671 1515 1475 1326 983 784 868 865 697 540 477 322 65 42 86
0 0 0 0 0 0 0 0 0 0 0 0 17 87 811 1084 1389 1479 1290 1037 764 698 798 1077 1095 1084 1058 1114 1323 1311 1562 1520 1822 1902 1783 1644 1444 1346 1122 1125 997 1184 906 1211 933 944 755 436 182
0 0 0 0 0 0 0 0 0 0 0 0 0 9 731 1193 1300 1509 1525 1240 987 875 790 1130 937 906 1200 1077 1320 1114 1213 1371 1544 1443 1416 1284 1433 1364 1177 965 982 1058 1001 1091 1155 1069 874 640 285
0 0 0 0 0 0 0 0 0 0 0 0 0 0 24 761 1363 1451 1523 1335 1043 824 937 1154 1096 1112 1172 1200 1350 1389 1333 1713 1736 1893 1376 1276 1308 1240 1024 949 715 659 725 798 1088 1120 959 810 570
0 0 0 0 0 0 0 0 0 0 0 0 0 0 0 42 753 1385 1423 1451 1229 911 796 734 758 889 1293 1166 790 1039 1470 1264 1511 1658 1442 1193 1341 1148 877 797 629 656 661 645 591 1205 1097 1005 771
0 0 0 0 0 0 0 0 0 0 0 0 0 0 0 0 134 991 1464 1542 1487 1282 887 757 670 868 660 575 363 569 696 892 965 1189 1105 1272 1125 898 643 675 514 609 895 877 1207 1248 1086 1064 974
0 0 0 0 0 0 0 0 0 0 0 0 0 0 0 0 0 164 1034 1555 1581 1537 1338 928 697 714 750 680 560 499 512 668 787 866 946 979 824 637 597 591 555 627 1019 1158 1338 1436 1385 1328 1390
0 0 0 0 0 0 0 0 0 0 0 0 0 0 0 0 0 0 199 1163 1557 1713 1510 1317 1092 855 858 771 664 579 613 612 622 612 518 458 505 474 578 547 572 650 794 814 960 1065 1031 1010 1057
0 0 0 0 0 0 0 0 0 0 0 0 0 0 0 0 0 0 0 327 1012 1590 1613 1378 1313 1024 1046 1017 770 476 258 361 414 353 328 343 378 503 605 636 771 781 631 719 903 1150 1220 1093 1195
0 0 0 0 0 0 0 0 0 0 0 0 0 0 0 0 0 0 0 10 596 1161 1391 1285 1341 1193 1083 1086 802 689 721 419 393 412 362 686 619 645 759 977 935 703 980 1205 1066 1235 1573 1034 989
0 0 0 0 0 0 0 0 0 0 0 0 0 0 0 0 0 0 0 0 493 934 1266 1243 1235 1227 1202 1165 1067 753 749 531 475 574 665 750 820 986 1137 1171 1203 931 1049 1235 1296 1271 1070 1005 767
0 0 0 0 0 0 0 0 0 0 0 0 0 0 0 0 0 0 0 0 58 633 1263 1238 1247 1273 1272 1451 1423 1000 758 739 858 1201 1187 1364 1478 1452 1248 1306 1223 1326 1290 1227 1255 1099 968 858 569
0 0 0 0 0 0 0 0 0 0 0 0 0 0 0 0 0 0 0 0 44 519 1068 1234 1274 1227 1421 1524 1663 1366 1011 989 979 1041 1243 1473 1542 1408 1357 1393 1366 1321 1147 1107 1043 924 762 572 325
0 0 0 0 0 0 0 0 0 0 0 0 0 0 0 0 0 0 0 0 0 295 984 1422 1294 1177 1433 1584 1713 1705 1249 1130 917 1255 1428 1470 1586 1362 1144 1095 983 860 585 457 293 32 10 6 7
6 0 0 0 0 0 0 0 0 0 0 0 0 0 0 0 0 0 0 0 2 695 865 1133 1171 1089 1165 1078 1450 1739 1501 1291 1299 1490 1513 1478 1107 798 493 352 111 105 67 27 0 0 3 4 4
0 4 0 0 0 0 0 0 0 0 0 0 0 0 0 0 0 0 0 0 19 228 736 966 998 865 823 1006 1376 1712 1595 1389 1558 1517 1314 1273 524 661 75 42 12 0 0 0 0 0 0 0 0
0 0 0 0 0 0 0 0 0 0 0 0 0 0 0 0 0 0 0 0 0 21 67 440 799 851 898 929 1426 1807 1535 1488 1518 1395 1267 851 416 6 0 0 0 0 0 0 0 0 0 0 0
0 1 0 0 0 0 0 0 0 0 0 0 0 0 0 0 0 0 0 0 0 0 61 735 1182 1326 1360 1504 1604 1428 1377 1532 1453 1295 712 349 3 0 0 0 0 0 0 0 0 0 0 0 0
0 0 0 0 0 0 0 0 0 0 0 0 0 0 0 0 0 0 0 0 0 0 48 387 930 1268 1346 1232 1447 1548 1623 1108 850 491 185 0 0 0 0 0 0 0 0 0 0 0 0 0 0
0 0 0 0 0 0 0 0 0 0 0 0 0 0 0 0 0 0 0 0 0 0 149 338 591 782 1283 1403 1188 1404 798 572 429 33 0 0 0 0 0 0 0 0 0 0 0 0 0 0 0
4 0 0 0 0 0 0 0 0 0 0 0 0 0 0 0 0 0 0 0 0 0 105 448 610 1115 1275 1013 1590 1313 831 219 5 1 0 0 0 0 0 0 0 0 0 0 0 0 0 0 0
CIN
0 0 0 0 0 0 0 0 0 0 0 -49 -55 0 0 -172 -99 -72 -531 -543 -466 -345 -288 -249 -202 -145 -146 -123 -122 -120 -100 -93 -78 -56 -44 -27 -11 -2 0 0 0 -3 -26 -39 -32 -19 -17 -14 -7
0 0 0 0 0 0 0 0 0 0 0 -193 -211 -203 -165 -102 -279 -411 -490 -483 -388 -305 -261 -262 -245 -167 -155 -135 -122 -111 -91 -88 -92 -72 -39 -19 -8 0 0 0 0 -3 -31 -84 -60 -32 -32 -39 -20
0 0 0 0 0 0 0 0 0 0 0 -202 -305 -140 -175 -191 -288 -379 -458 -445 -323 -260 -220 -263 -247 -200 -162 -152 -128 -112 -108 -113 -102 -89 -46 -20 -7 -2 0 0 -6 -4 -24 -110 -127 -125 -123 -139 -144
0 0 0 0 0 0 0 0 0 0 0 -178 -228 -194 -187 -167 -288 -313 -389 -378 -320 -253 -211 -312 -247 -192 -167 -143 -118 -117 -126 -142 -126 -91 -56 -18 -4 -9 -6 -13 -22 -15 -28 -130 -180 -240 -291 -304 -333
0 0 0 0 0 0 0 0 0 0 0 -246 -303 -204 -299 -138 -160 -327 -308 -334 -329 -270 -238 -243 -248 -214 -161 -115 -114 -148 -148 -157 -136 -89 -72 -40 -31 -31 -24 -18 -31 -39 -46 -147 -241 -306 -305 -381 0
0 0 0 0 0 0 0 0 0 0 0 -249 -252 -205 -273 -428 -313 -307 -299 -313 -304 -303 -300 -174 -254 -183 -145 -144 -170 -200 -193 -183 -154 -103 -78 -69 -82 -89 -56 -35 -46 -68 -116 -168 -238 -301 -372 -257 0
0 0 0 0 0 0 0 0 0 0 0 0 -295 -142 -364 -405 -348 -330 -318 -309 -301 -273 -224 -163 -149 -132 -145 -179 -228 -238 -219 -207 -163 -131 -113 -148 -185 -148 -89 -66 -54 -124 -193 -259 -302 -362 0 0 0
0 0 0 0 0 0 0 0 0 0 0 -393 -280 -154 -192 -441 -376 -231 -322 -285 -280 -245 -218 -173 -168 -139 -100 -104 -223 -221 -215 -217 -182 -148 -168 -207 -196 -167 -148 -131 -96 -158 -204 -263 -310 -404 0 0 0
0 0 0 0 0 0 0 0 0 0 0 -377 -314 -323 -266 -455 -262 -157 -147 -344 -302 -283 -286 -263 -161 -145 -142 -110 -151 -191 -184 -213 -178 -152 -182 -196 -118 -116 -129 -173 -168 -167 -195 -250 -301 -385 -112 -51 0
0 0 0 0 0 0 0 0 0 0 0 -84 -258 -234 -441 -374 -289 -257 -157 -162 -378 -366 -285 -177 -231 -223 -221 -192 -175 -79 -92 -103 -82 -87 -91 -102 -108 -113 -151 -180 -173 -176 -194 -215 -187 -223 -332 -356 -299
0 0 0 0 0 0 0 0 0 0 0 0 -130 -219 -318 -313 -276 -255 -273 -173 -400 -397 -384 -305 -289 -283 -273 -247 -219 -188 -167 -170 -95 -88 -85 -83 -101 -102 -109 -91 -107 -74 -121 -55 -78 -66 -95 -174 -248
0 0 0 0 0 0 0 0 0 0 0 0 0 -81 -302 -276 -286 -256 -254 -280 -212 -370 -398 -318 -338 -338 -232 -252 -203 -245 -248 -210 -162 -167 -144 -138 -106 -84 -79 -89 -94 -74 -65 -43 -21 -16 -43 -101 -207
0 0 0 0 0 0 0 0 0 0 0 0 0 0 -284 -245 -254 -257 -230 -266 -233 -392 -355 -320 -314 -301 -258 -233 -201 -215 -218 -151 -137 -104 -144 -141 -114 -80 -80 -82 -111 -110 -91 -71 -13 -4 -13 -38 -94
0 0 0 0 0 0 0 0 0 0 0 0 0 0 0 -289 -243 -280 -280 -262 -313 -357 -402 -406 -391 -364 -253 -262 -348 -281 -192 -195 -153 -126 -127 -138 -93 -83 -98 -115 -133 -119 -103 -91 -82 -1 -1 -3 -30
0 0 0 0 0 0 0 0 0 0 0 0 0 0 0 0 -328 -288 -276 -260 -269 -309 -364 -413 -415 -344 -394 -407 -458 -374 -332 -268 -235 -170 -168 -121 -108 -111 -151 -136 -148 -111 -75 -68 -10 -7 -10 -9 -16
0 0 0 0 0 0 0 0 0 0 0 0 0 0 0 0 0 -297 -275 -234 -239 -249 -322 -373 -416 -389 -359 -383 -381 -376 -360 -294 -249 -220 -182 -155 -143 -156 -167 -167 -155 -120 -53 -19 -3 -1 -1 -4 -4
0 0 0 0 0 0 0 0 0 0 0 0 0 0 0 0 0 0 -362 -262 -241 -251 -283 -316 -333 -208 -202 -271 -345 -344 -336 -324 -294 -258 -255 -237 -213 -203 -168 -165 -74 -60 -83 -28 -23 -16 -15 -20 -22
0 0 0 0 0 0 0 0 0 0 0 0 0 0 0 0 0 0 0 -318 -250 -247 -267 -199 -289 -208 -205 -188 -199 -349 -425 -365 -334 -324 -300 -244 -237 -206 -167 -121 -112 -98 -64 -108 -58 -19 -8 -14 -14
0 0 0 0 0 0 0 0 0 0 0 0 0 0 0 0 0 0 0 -331 -272 -285 -283 -325 -162 -183 -213 -198 -19 -307 -322 -370 -336 -305 -143 -91 -92 -81 -133 -85 -98 -64 -78 -40 -15 -8 0 -7 -7
0 0 0 0 0 0 0 0 0 0 0 0 0 0 0 0 0 0 0 0 -364 -321 -318 -328 -327 -166 -122 -44 -25 -24 -304 -34 -95 -235 -111 -103 -100 -89 -65 -65 -62 -75 -47 -20 -14 -8 -5 -2 -9
0 0 0 0 0 0 0 0 0 0 0 0 0 0 0 0 0 0 0 0 -474 -316 -299 -325 -341 -139 -131 -70 -48 -23 -43 -30 -166 -110 -97 -51 -41 -38 -42 -28 -28 -19 -8 -8 -8 -6 -5 -1 -11
0 0 0 0 0 0 0 0 0 0 0 0 0 0 0 0 0 0 0 0 -179 -413 -322 -315 -320 -258 -121 -95 -72 -43 -46 -35 -181 -149 -74 -38 -28 -28 -22 -7 0 0 0 0 0 0 -2 -6 -8
0 0 0 0 0 0 0 0 0 0 0 0 0 0 0 0 0 0 0 0 0 -412 -373 -325 -322 -300 -125 -129 -105 -67 -143 -49 -40 -89 -39 -26 -6 -8 -9 0 -1 -3 -17 -1 -3 -56 0 0 0
-1 0 0 0 0 0 0 0 0 0 0 0 0 0 0 0 0 0 0 0 -30 -367 -349 -333 -338 -328 -279 -222 -151 -84 -57 -60 -109 -51 -20 -1 -7 -1 -15 -21 -83 -51 -42 -29 0 0 0 0 0
-4 -4 -1 0 0 0 0 0 0 0 0 0 0 0 0 0 0 0 0 0 -569 -482 -359 -330 -337 -339 -326 -263 -153 -85 -69 -66 -62 -36 -19 -2 -34 -1 -78 -83 -72 0 0 0 0 0 0 0 0
0 0 0 0 0 0 0 0 0 0 0 0 0 0 0 0 0 0 0 0 0 -645 -542 -407 -334 -300 -278 -245 -148 -87 -65 -46 -16 -11 -10 -13 -20 -188 -26 0 0 0 0 0 0 0 0 0 0
0 -2 0 0 0 0 0 0 0 0 0 0 0 0 0 0 0 0 0 0 0 0 -409 -347 -257 -228 -196 -152 -92 -60 -47 -13 -10 -13 -21 -27 -91 0 0 0 0 0 0 0 0 0 0 0 0
0 0 0 0 0 0 0 0 0 0 0 0 0 0 0 0 0 0 0 0 0 0 -394 -363 -242 -209 -156 -124 -62 -30 -11 -24 -28 -39 -66 -89 0 0 0 0 0 0 0 0 0 0 0 0 0
0 0 0 0 0 0 0 0 0 0 0 0 0 0 0 0 0 0 0 0 0 0 -291 -278 -210 -201 -95 -57 -54 -12 -27 -32 -26 -114 -4 0 0 0 0 0 0 0 0 0 0 0 0 0 0
-1 0 0 0 0 0 0 0 0 0 0 0 0 0 0 0 0 0 0 0 0 0 -272 -195 -191 -91 -50 -57 0 0 0 -38 -134 -146 0 0 0 0 0 0 0 0 0 0 0 0 0 0 0
Wind_Speed
nan nan nan nan nan nan nan nan nan nan nan nan nan nan nan 19 17 14 14 17 27 33 38 38 34 23 23 25 23 26 28 30 30 23 21 21 21 20 20 18 16 16 16 17 18 16 16 16 15
nan nan nan nan nan nan nan nan nan nan nan 14 18 18 23 17 20 22 20 21 30 33 37 32 30 23 22 23 23 28 29 30 31 29 24 22 21 19 17 15 13 13 14 15 14 14 13 14 14
nan nan nan nan nan nan nan nan nan nan nan 11 nan 19 26 26 29 29 26 28 31 34 28 28 27 25 24 24 22 25 27 30 29 32 28 24 21 20 17 13 13 13 14 15 13 10 9 9 10
nan nan nan nan nan nan nan nan nan nan nan 12 nan nan 27 31 31 31 32 30 29 25 21 28 28 27 28 25 24 25 26 28 29 30 28 24 21 20 18 13 13 13 14 14 13 11 10 nan nan
nan nan nan nan nan nan nan nan nan nan nan 19 nan nan nan 27 30 35 30 30 30 23 18 25 23 26 26 25 26 26 27 29 30 29 29 25 22 21 18 14 14 16 15 13 12 11 9 nan nan
nan nan nan nan nan nan nan nan nan nan nan nan 20 nan nan 26 29 32 31 27 25 21 22 22 23 23 20 22 25 26 28 29 30 28 26 25 22 20 18 17 17 18 18 14 12 11 nan nan nan
nan nan nan nan nan nan nan nan nan nan nan nan 22 23 nan 24 27 29 25 26 25 27 22 17 18 19 18 22 28 30 26 27 28 27 24 23 21 19 18 18 18 19 17 14 13 nan nan nan nan
nan nan nan nan nan nan nan nan nan nan nan nan nan nan nan nan 31 27 26 29 28 28 17 16 21 22 27 25 27 26 27 27 25 25 24 23 21 18 17 18 18 19 16 14 11 nan nan nan nan
nan nan nan nan nan nan nan nan nan nan nan nan nan nan nan 31 34 29 28 27 23 16 11 12 18 25 21 19 23 26 27 25 24 22 23 22 19 18 18 17 18 17 15 12 11 nan nan nan nan
nan nan nan nan nan nan nan nan nan nan nan nan nan nan 21 23 26 27 23 25 17 12 4 10 12 13 18 18 23 24 23 21 20 20 20 16 18 16 16 17 17 17 15 13 13 13 nan nan nan
nan nan nan nan nan nan nan nan nan nan nan nan nan nan 21 20 23 23 21 19 15 14 8 7 12 17 17 18 22 20 17 19 18 20 18 15 16 16 15 14 14 15 14 14 13 13 11 11 11
nan nan nan nan nan nan nan nan nan nan nan nan nan nan 25 19 20 21 16 20 17 14 14 16 17 19 17 18 20 18 19 19 17 17 18 16 17 15 14 13 14 16 16 16 14 15 13 13 13
nan nan nan nan nan nan nan nan nan nan nan nan nan nan nan 15 16 16 14 16 19 18 18 19 23 23 20 18 20 18 19 18 17 18 17 16 16 15 14 13 14 16 18 17 16 16 15 15 14
nan nan nan nan nan nan nan nan nan nan nan nan nan nan nan nan 12 16 17 16 17 21 20 23 24 24 22 21 21 21 21 18 16 18 16 17 17 15 13 14 15 17 18 18 17 17 16 16 15
nan nan nan nan nan nan nan nan nan nan nan nan nan nan nan nan 16 11 17 18 19 19 26 25 26 27 23 26 25 24 22 21 19 17 17 17 17 16 17 16 17 18 20 20 17 17 18 16 15
nan nan nan nan nan nan nan nan nan nan nan nan nan nan nan nan nan 19 16 20 20 22 22 27 25 22 21 25 27 26 25 22 22 20 19 17 17 19 19 18 19 20 20 18 18 19 19 17 15
nan nan nan nan nan nan nan nan nan nan nan nan nan nan nan nan nan nan 16 18 23 18 23 28 24 24 23 26 28 29 27 25 24 22 21 18 17 18 18 19 20 21 22 22 22 22 22 22 20
nan nan nan nan nan nan nan nan nan nan nan nan nan nan nan nan nan nan nan 15 18 18 20 29 27 28 27 29 31 30 30 29 23 21 21 18 17 16 19 21 23 23 25 25 24 23 26 25 24
nan nan nan nan nan nan nan nan nan nan nan nan nan nan nan nan nan nan nan nan 14 21 27 28 30 32 33 32 32 29 27 28 22 23 26 19 20 20 21 23 25 27 25 27 29 27 26 28 32
nan nan nan nan nan nan nan nan nan nan nan nan nan nan nan nan nan nan nan nan 18 15 21 31 28 35 33 34 33 31 33 30 27 24 22 21 24 23 23 25 27 28 29 31 33 32 34 33 34
nan nan nan nan nan nan nan nan nan nan nan nan nan nan nan nan nan nan nan nan nan 16 20 23 26 35 36 36 37 38 38 35 30 29 30 27 27 27 29 31 32 31 31 31 33 33 35 35 38
nan nan nan nan nan nan nan nan nan nan nan nan nan nan nan nan nan nan nan nan nan 16 22 24 30 35 35 35 35 33 33 33 32 37 36 34 36 37 38 38 36 36 37 39 37 38 41 41 42
nan nan nan nan nan nan nan nan nan nan nan nan nan nan nan nan nan nan nan nan nan 26 26 28 28 32 33 33 31 31 31 36 38 40 40 42 41 43 42 41 42 41 40 40 43 nan nan nan nan
nan nan nan nan nan nan nan nan nan nan nan nan nan nan nan nan nan nan nan nan nan 31 29 30 27 28 32 33 32 31 33 40 41 40 41 42 43 43 46 45 47 47 nan nan nan nan nan nan nan
nan nan nan nan nan nan nan nan nan nan nan nan nan nan nan nan nan nan nan nan nan 30 30 32 33 31 33 36 38 37 40 42 44 45 45 46 47 46 nan nan nan nan nan nan nan nan nan nan nan
nan nan nan nan nan nan nan nan nan nan nan nan nan nan nan nan nan nan nan nan nan nan nan 34 34 34 38 42 43 43 44 44 46 48 51 47 50 nan nan nan nan nan nan nan nan nan nan nan nan
nan nan nan nan nan nan nan nan nan nan nan nan nan nan nan nan nan nan nan nan nan nan nan 34 36 40 42 43 42 44 47 49 52 54 50 51 nan nan nan nan nan nan nan nan nan nan nan nan nan
nan nan nan nan nan nan nan nan nan nan nan nan nan nan nan nan nan nan nan nan nan nan nan 39 40 45 43 41 43 44 49 54 54 52 52 nan nan nan nan nan nan nan nan nan nan nan nan nan nan
nan nan nan nan nan nan nan nan nan nan nan nan nan nan nan nan nan nan nan nan nan nan 38 43 44 46 46 45 46 47 50 52 53 nan nan nan nan nan nan nan nan nan nan nan nan nan nan nan nan
nan nan nan nan nan nan nan nan nan nan nan nan nan nan nan nan nan nan nan nan nan nan 36 43 45 49 49 50 53 52 52 52 nan nan nan nan nan nan nan nan nan nan nan nan nan nan nan nan nan
Wind_Direction
nan nan nan nan nan nan nan nan nan nan nan nan nan nan nan 240 273 262 260 285 302 312 315 315 312 313 313 306 311 318 317 319 315 315 320 325 322 319 314 325 329 330 327 320 313 309 312 313 314
nan nan nan nan nan nan nan nan nan nan nan 250 232 229 222 246 239 247 265 277 301 304 308 314 310 310 308 305 307 312 315 317 315 314 317 319 320 320 316 325 324 329 328 324 319 313 319 318 318
nan nan nan nan nan nan nan nan nan nan nan 236 nan 225 221 234 243 252 250 279 297 301 308 312 302 306 305 301 306 308 314 313 316 315 316 317 314 312 308 315 313 321 319 313 311 314 325 330 328
nan nan nan nan nan nan nan nan nan nan nan 234 nan nan 229 230 238 243 273 293 305 317 313 311 306 300 300 303 308 310 316 313 319 314 312 309 306 307 307 311 311 309 307 305 305 310 315 nan nan
nan nan nan nan nan nan nan nan nan nan nan 237 nan nan nan 248 258 264 286 298 302 306 304 313 300 295 295 298 301 309 313 315 318 315 311 305 303 304 306 316 315 309 310 308 299 299 309 nan nan
nan nan nan nan nan nan nan nan nan nan nan nan 251 nan nan 276 289 280 287 291 298 304 304 300 283 285 294 300 304 311 308 314 313 312 306 300 299 300 308 316 317 315 317 312 302 304 nan nan nan
nan nan nan nan nan nan nan nan nan nan nan nan 242 260 nan 274 290 286 289 297 311 310 295 293 273 273 285 295 301 302 302 307 310 308 302 296 296 300 306 311 314 313 315 312 310 nan nan nan nan
nan nan nan nan nan nan nan nan nan nan nan nan nan nan nan nan 296 284 283 284 302 301 284 270 263 288 284 292 292 296 305 309 309 308 303 297 293 299 304 306 305 305 307 310 307 nan nan nan nan
nan nan nan nan nan nan nan nan nan nan nan nan nan nan nan 291 300 286 281 284 289 289 259 242 274 282 284 288 294 303 308 307 304 302 298 299 300 308 311 297 300 297 301 296 284 nan nan nan nan
nan nan nan nan nan nan nan nan nan nan nan nan nan nan 271 298 315 299 293 303 300 305 279 250 267 277 279 286 302 308 308 307 305 301 300 296 299 301 298 300 303 299 297 286 276 267 nan nan nan
nan nan nan nan nan nan nan nan nan nan nan nan nan nan 301 300 310 314 291 305 298 302 251 259 258 268 289 297 293 291 292 291 289 297 293 290 286 285 285 287 295 288 287 274 276 274 261 257 251
nan nan nan nan nan nan nan nan nan nan nan nan nan nan 311 314 319 330 291 297 280 289 286 271 280 274 288 288 292 296 289 279 279 285 292 280 274 280 283 287 291 284 278 278 276 273 264 256 258
nan nan nan nan nan nan nan nan nan nan nan nan nan nan nan 308 310 310 289 276 282 280 286 292 286 281 277 289 288 287 276 275 283 274 277 279 282 285 286 288 288 284 285 285 285 281 275 272 270
nan nan nan nan nan nan nan nan nan nan nan nan nan nan nan nan 298 276 305 287 282 273 277 280 282 279 286 294 287 276 266 268 273 268 278 285 278 281 286 289 293 290 288 288 287 285 278 272 270
nan nan nan nan nan nan nan nan nan nan nan nan nan nan nan nan 243 276 297 293 275 270 270 276 278 287 290 288 279 268 262 264 262 263 278 283 283 284 283 281 281 280 281 286 286 285 281 278 277
nan nan nan nan nan nan nan nan nan nan nan nan nan nan nan nan nan 236 254 276 276 273 283 278 274 283 287 279 273 265 262 267 268 267 267 281 284 284 282 281 284 283 278 276 278 278 276 273 266
nan nan nan nan nan nan nan nan nan nan nan nan nan nan nan nan nan nan 270 279 284 281 274 284 284 275 276 274 265 266 267 265 265 266 266 276 280 286 284 280 275 273 269 270 271 272 276 274 269
nan nan nan nan nan nan nan nan nan nan nan nan nan nan nan nan nan nan nan 269 268 263 257 268 269 272 273 264 266 262 263 263 256 266 271 280 275 282 279 274 275 273 271 271 271 271 271 271 271
nan nan nan nan nan nan nan nan nan nan nan nan nan nan nan nan nan nan nan nan 257 247 256 264 270 272 266 262 263 260 268 271 267 268 274 277 273 275 276 272 275 278 279 277 277 274 274 274 273
nan nan nan nan nan nan nan nan nan nan nan nan nan nan nan nan nan nan nan nan 273 272 254 261 265 270 265 262 263 253 261 265 267 273 274 266 268 272 271 273 272 275 274 279 281 281 275 275 279
nan nan nan nan nan nan nan nan nan nan nan nan nan nan nan nan nan nan nan nan nan 264 259 255 256 265 267 263 260 255 259 257 267 270 266 267 273 273 273 270 267 269 269 271 275 277 279 275 273
nan nan nan nan nan nan nan nan nan nan nan nan nan nan nan nan nan nan nan nan nan 264 252 248 254 260 262 266 263 264 259 258 259 260 264 265 265 264 266 268 268 271 272 274 274 275 275 277 277
nan nan nan nan nan nan nan nan nan nan nan nan nan nan nan nan nan nan nan nan nan 247 252 255 256 261 263 268 269 262 263 257 258 261 266 263 261 263 264 271 276 276 276 279 279 nan nan nan nan
nan nan nan nan nan nan nan nan nan nan nan nan nan nan nan nan nan nan nan nan nan 252 252 256 260 262 263 268 272 271 267 265 265 264 262 262 261 263 268 271 274 276 nan nan nan nan nan nan nan
nan nan nan nan nan nan nan nan nan nan nan nan nan nan nan nan nan nan nan nan nan 261 261 259 264 260 259 261 264 268 266 267 269 268 264 267 265 266 nan nan nan nan nan nan nan nan nan nan nan
nan nan nan nan nan nan nan nan nan nan nan nan nan nan nan nan nan nan nan nan nan nan nan 260 270 268 261 259 259 261 265 260 262 264 269 269 272 nan nan nan nan nan nan nan nan nan nan nan nan
nan nan nan nan nan nan nan nan nan nan nan nan nan nan nan nan nan nan nan nan nan nan nan 264 262 261 258 261 262 259 256 264 267 269 271 272 nan nan nan nan nan nan nan nan nan nan nan nan nan
nan nan nan nan nan nan nan nan nan nan nan nan nan nan nan nan nan nan nan nan nan nan nan 257 257 261 261 263 263 262 267 267 268 271 274 nan nan nan nan nan nan nan nan nan nan nan nan nan nan
nan nan nan nan nan nan nan nan nan nan nan nan nan nan nan nan nan nan nan nan nan nan 250 252 259 266 268 266 264 264 266 268 266 nan nan nan nan nan nan nan nan nan nan nan nan nan nan nan nan
nan nan nan nan nan nan nan nan nan nan nan nan nan nan nan nan nan nan nan nan nan nan 255 252 258 263 267 268 271 272 273 269 nan nan nan nan nan nan nan nan nan nan nan nan nan nan nan nan nan